| time (UTC) | temp F | wind direction | speed knots | gust knots | rain 1hr in | rain 24hr in | rain mn in | humidity % | barometer mb |
| 20260906160945 | 71 | 61 | 1.7 | 7.8 | 0.00 | 0.01 | 0.00 | 66 | 1020.1 |
| 20260906155953 | 71 | 61 | 1.7 | 7.8 | 0.00 | 0.01 | 0.00 | 66 | 1020.1 |
| 20260906154944 | 71 | 45 | 1.7 | 6.1 | 0.00 | 0.01 | 0.00 | 67 | 1020.0 |
| 20260906153945 | 72 | 26 | 3.5 | 7.8 | 0.00 | 0.01 | 0.00 | 67 | 1020.0 |
| 20260906152943 | 71 | 32 | 1.7 | 6.1 | 0.00 | 0.01 | 0.00 | 67 | 1020.0 |
| 20260906151943 | 71 | 11 | 1.7 | 6.1 | 0.00 | 0.01 | 0.00 | 71 | 1019.9 |
| 20260906150941 | 70 | 322 | 1.7 | 6.1 | 0.00 | 0.01 | 0.00 | 74 | 1019.8 |
| 20260906145944 | 70 | 12 | 1.7 | 6.1 | 0.00 | 0.01 | 0.00 | 74 | 1019.7 |
| 20260906144940 | 70 | 338 | 0.0 | 3.5 | 0.00 | 0.01 | 0.00 | 77 | 1019.7 |
| 20260906143937 | 69 | 34 | 1.7 | 4.3 | 0.00 | 0.01 | 0.00 | 78 | 1019.7 |
| 20260906142936 | 69 | 345 | 1.7 | 4.3 | 0.00 | 0.01 | 0.00 | 82 | 1019.7 |
| 20260906141936 | 68 | 340 | 1.7 | 4.3 | 0.00 | 0.01 | 0.00 | 83 | 1019.7 |
| 20260906140937 | 68 | 355 | 1.7 | 4.3 | 0.00 | 0.01 | 0.00 | 83 | 1019.6 |
| 20260906135938 | 67 | 350 | 1.7 | 4.3 | 0.00 | 0.01 | 0.00 | 85 | 1019.5 |
| 20260906134936 | 67 | 56 | 1.7 | 4.3 | 0.00 | 0.01 | 0.00 | 88 | 1019.5 |
| 20260906133937 | 67 | 46 | 1.7 | 6.1 | 0.00 | 0.01 | 0.00 | 90 | 1019.4 |
| 20260906132939 | 66 | 333 | 1.7 | 6.1 | 0.00 | 0.01 | 0.00 | 92 | 1019.4 |
| 20260906131938 | 65 | 39 | 0.0 | 3.5 | 0.00 | 0.01 | 0.00 | 93 | 1019.4 |
| 20260906130937 | 64 | 346 | 1.7 | 4.3 | 0.00 | 0.01 | 0.00 | 94 | 1019.5 |
| 20260906125931 | 64 | 355 | 0.0 | 4.3 | 0.00 | 0.01 | 0.00 | 95 | 1019.3 |
| 20260906124935 | 63 | 28 | 0.0 | 3.5 | 0.00 | 0.01 | 0.00 | 95 | 1019.3 |
| 20260906123934 | 62 | 5 | 1.7 | 3.5 | 0.00 | 0.01 | 0.00 | 95 | 1019.3 |
| 20260906122931 | 62 | 27 | 0.0 | 4.3 | 0.00 | 0.01 | 0.00 | 95 | 1019.2 |
| 20260906121935 | 61 | 47 | 0.0 | 3.5 | 0.00 | 0.01 | 0.00 | 95 | 1019.1 |
| 20260906120931 | 61 | 0 | 0.0 | 0.0 | 0.00 | 0.01 | 0.00 | 95 | 1018.9 |
| 20260906115930 | 61 | 0 | 0.0 | 0.0 | 0.00 | 0.01 | 0.00 | 95 | 1018.8 |
| 20260906114931 | 61 | 0 | 0.0 | 0.0 | 0.00 | 0.01 | 0.00 | 95 | 1018.7 |
| 20260906113934 | 60 | 0 | 0.0 | 0.0 | 0.00 | 0.01 | 0.00 | 95 | 1018.4 |
| 20260906112928 | 60 | 0 | 0.0 | 0.0 | 0.00 | 0.01 | 0.00 | 95 | 1018.4 |
| 20260906111930 | 60 | 0 | 0.0 | 0.0 | 0.00 | 0.01 | 0.00 | 94 | 1018.3 |
| 20260906110928 | 60 | 0 | 0.0 | 0.0 | 0.00 | 0.01 | 0.00 | 94 | 1018.2 |
| 20260906105927 | 60 | 12 | 0.0 | 0.0 | 0.00 | 0.01 | 0.00 | 94 | 1018.1 |
| 20260906104928 | 60 | 18 | 0.0 | 0.0 | 0.00 | 0.01 | 0.00 | 94 | 1018.1 |
| 20260906103930 | 60 | 18 | 0.0 | 0.0 | 0.00 | 0.01 | 0.00 | 94 | 1018.1 |
| 20260906102927 | 60 | 344 | 0.0 | 0.0 | 0.00 | 0.01 | 0.00 | 94 | 1018.1 |
| 20260906101928 | 60 | 23 | 0.0 | 0.0 | 0.00 | 0.01 | 0.00 | 94 | 1018.0 |
| 20260906100927 | 60 | 23 | 0.0 | 0.0 | 0.00 | 0.01 | 0.00 | 94 | 1017.9 |
| 20260906095930 | 60 | 23 | 0.0 | 0.0 | 0.00 | 0.01 | 0.00 | 94 | 1018.0 |
| 20260906094932 | 60 | 323 | 0.0 | 3.5 | 0.00 | 0.01 | 0.00 | 94 | 1017.9 |
| 20260906093929 | 60 | 349 | 0.0 | 1.7 | 0.00 | 0.01 | 0.00 | 94 | 1017.9 |
| 20260906092926 | 60 | 349 | 0.0 | 3.5 | 0.00 | 0.01 | 0.00 | 94 | 1017.8 |
| 20260906091929 | 60 | 349 | 0.0 | 3.5 | 0.00 | 0.01 | 0.00 | 93 | 1017.8 |
| 20260906090927 | 60 | 349 | 0.0 | 1.7 | 0.00 | 0.01 | 0.00 | 93 | 1017.9 |
| 20260906085928 | 60 | 13 | 0.0 | 0.0 | 0.00 | 0.01 | 0.00 | 93 | 1017.8 |
| 20260906084927 | 60 | 13 | 0.0 | 0.0 | 0.00 | 0.01 | 0.00 | 93 | 1017.8 |
| 20260906083922 | 60 | 13 | 0.0 | 0.0 | 0.00 | 0.01 | 0.00 | 93 | 1017.7 |
| 20260906082920 | 60 | 13 | 0.0 | 0.0 | 0.00 | 0.01 | 0.00 | 93 | 1017.5 |
| 20260906081920 | 60 | 13 | 0.0 | 3.5 | 0.00 | 0.01 | 0.00 | 93 | 1017.4 |
| 20260906080919 | 60 | 328 | 0.0 | 3.5 | 0.00 | 0.01 | 0.00 | 93 | 1017.6 |
| 20260906075919 | 60 | 328 | 0.0 | 3.5 | 0.00 | 0.01 | 0.00 | 93 | 1017.6 |
| 20260906074920 | 61 | 313 | 0.0 | 3.5 | 0.00 | 0.01 | 0.00 | 93 | 1017.6 |
| 20260906073919 | 61 | 11 | 0.0 | 0.0 | 0.00 | 0.01 | 0.00 | 93 | 1017.6 |
| 20260906072920 | 61 | 13 | 0.0 | 0.0 | 0.00 | 0.01 | 0.00 | 93 | 1017.4 |
| 20260906071931 | 61 | 15 | 0.0 | 1.7 | 0.00 | 0.01 | 0.00 | 93 | 1017.4 |
| 20260906070920 | 61 | 15 | 0.0 | 3.5 | 0.00 | 0.01 | 0.00 | 93 | 1017.2 |
| 20260906065917 | 61 | 355 | 0.0 | 3.5 | 0.00 | 0.01 | 0.00 | 92 | 1017.2 |
| 20260906064913 | 60 | 0 | 0.0 | 0.0 | 0.00 | 0.01 | 0.00 | 92 | 1017.2 |
| 20260906063912 | 60 | 13 | 0.0 | 3.5 | 0.00 | 0.01 | 0.00 | 92 | 1017.2 |
| 20260906062914 | 60 | 13 | 0.0 | 3.5 | 0.00 | 0.01 | 0.00 | 92 | 1017.1 |
| 20260906061915 | 60 | 329 | 0.0 | 0.0 | 0.00 | 0.01 | 0.00 | 91 | 1017.0 |
| 20260906060915 | 60 | 329 | 1.7 | 3.5 | 0.00 | 0.01 | 0.00 | 91 | 1017.2 |
| 20260906055914 | 60 | 347 | 0.0 | 3.5 | 0.00 | 0.01 | 0.00 | 91 | 1017.2 |
| 20260906054915 | 60 | 333 | 1.7 | 4.3 | 0.00 | 0.01 | 0.00 | 91 | 1017.3 |
| 20260906053908 | 60 | 5 | 0.0 | 3.5 | 0.00 | 0.01 | 0.00 | 90 | 1017.2 |
| 20260906052910 | 60 | 5 | 0.0 | 3.5 | 0.00 | 0.01 | 0.00 | 90 | 1017.1 |
| 20260906051908 | 60 | 5 | 0.0 | 3.5 | 0.00 | 0.01 | 0.00 | 90 | 1017.2 |
| 20260906050908 | 60 | 5 | 0.0 | 0.0 | 0.00 | 0.01 | 0.00 | 90 | 1017.2 |
| 20260906045909 | 60 | 5 | 0.0 | 0.0 | 0.00 | 0.01 | 0.00 | 89 | 1017.2 |
| 20260906044906 | 60 | 5 | 0.0 | 1.7 | 0.00 | 0.01 | 0.00 | 89 | 1017.1 |
| 20260906043907 | 60 | 5 | 0.0 | 1.7 | 0.00 | 0.01 | 0.00 | 89 | 1017.2 |
| 20260906042907 | 60 | 5 | 0.0 | 0.0 | 0.00 | 0.01 | 0.00 | 89 | 1017.2 |
| 20260906041907 | 60 | 5 | 0.0 | 0.0 | 0.00 | 0.01 | 0.00 | 89 | 1017.1 |
| 20260906040903 | 60 | 5 | 0.0 | 0.0 | 0.00 | 0.01 | 0.00 | 88 | 1017.0 |
| 20260906035904 | 60 | 5 | 0.0 | 0.0 | 0.00 | 0.01 | 0.01 | 87 | 1016.9 |
| 20260906034905 | 60 | 5 | 0.0 | 1.7 | 0.00 | 0.01 | 0.01 | 87 | 1016.8 |
| 20260906033904 | 61 | 5 | 0.0 | 1.7 | 0.00 | 0.01 | 0.01 | 86 | 1016.9 |
| 20260906032859 | 61 | 5 | 0.0 | 0.0 | 0.00 | 0.01 | 0.01 | 86 | 1016.9 |
| 20260906031901 | 61 | 5 | 0.0 | 0.0 | 0.00 | 0.01 | 0.01 | 86 | 1016.9 |
| 20260906030902 | 61 | 5 | 0.0 | 0.0 | 0.00 | 0.01 | 0.01 | 85 | 1016.9 |
| 20260906025902 | 61 | 5 | 0.0 | 0.0 | 0.00 | 0.01 | 0.01 | 85 | 1016.8 |
| 20260906024903 | 61 | 5 | 0.0 | 0.0 | 0.00 | 0.01 | 0.01 | 86 | 1016.9 |
| 20260906023857 | 62 | 5 | 0.0 | 0.0 | 0.00 | 0.01 | 0.01 | 85 | 1017.0 |
| 20260906022856 | 62 | 5 | 0.0 | 0.0 | 0.00 | 0.01 | 0.01 | 86 | 1017.1 |
| 20260906021854 | 62 | 5 | 0.0 | 0.0 | 0.00 | 0.01 | 0.01 | 86 | 1016.9 |
| 20260906020853 | 63 | 5 | 0.0 | 0.0 | 0.00 | 0.01 | 0.01 | 84 | 1017.0 |
| 20260906015857 | 64 | 5 | 0.0 | 0.0 | 0.00 | 0.01 | 0.01 | 84 | 1016.9 |
| 20260906014855 | 64 | 5 | 0.0 | 0.0 | 0.00 | 0.01 | 0.01 | 83 | 1016.9 |
| 20260906013854 | 65 | 5 | 0.0 | 0.0 | 0.00 | 0.01 | 0.01 | 82 | 1016.8 |
| 20260906012853 | 65 | 5 | 0.0 | 1.7 | 0.00 | 0.01 | 0.01 | 83 | 1016.7 |
| 20260906011901 | 65 | 5 | 0.0 | 0.0 | 0.00 | 0.01 | 0.01 | 82 | 1016.6 |
| 20260906010852 | 65 | 5 | 0.0 | 0.0 | 0.00 | 0.01 | 0.01 | 81 | 1016.3 |
| 20260906005856 | 66 | 5 | 0.0 | 0.0 | 0.00 | 0.01 | 0.01 | 80 | 1016.3 |
| 20260906004851 | 67 | 5 | 0.0 | 0.0 | 0.00 | 0.01 | 0.01 | 79 | 1016.2 |
| 20260906003853 | 67 | 5 | 0.0 | 3.5 | 0.00 | 0.01 | 0.01 | 78 | 1016.2 |
| 20260906002851 | 67 | 348 | 0.0 | 3.5 | 0.00 | 0.01 | 0.01 | 76 | 1016.2 |
| 20260906001850 | 68 | 17 | 1.7 | 4.3 | 0.00 | 0.01 | 0.01 | 75 | 1016.2 |
| 20260906000850 | 68 | 37 | 1.7 | 3.5 | 0.00 | 0.01 | 0.01 | 75 | 1016.1 |
| 20260905235851 | 69 | 9 | 1.7 | 3.5 | 0.00 | 0.01 | 0.01 | 74 | 1016.0 |
| 20260905234850 | 69 | 355 | 0.0 | 3.5 | 0.00 | 0.01 | 0.01 | 73 | 1016.0 |
| 20260905233849 | 70 | 9 | 1.7 | 4.3 | 0.00 | 0.01 | 0.01 | 72 | 1015.9 |
| 20260905232848 | 71 | 27 | 1.7 | 3.5 | 0.00 | 0.01 | 0.01 | 71 | 1015.9 |
| 20260905231851 | 71 | 355 | 3.5 | 6.1 | 0.00 | 0.01 | 0.01 | 71 | 1016.0 |
| 20260905230851 | 72 | 37 | 3.5 | 6.1 | 0.00 | 0.01 | 0.01 | 71 | 1016.0 |
| 20260905225852 | 72 | 32 | 1.7 | 6.1 | 0.00 | 0.01 | 0.01 | 71 | 1015.8 |
| 20260905224851 | 73 | 33 | 1.7 | 4.3 | 0.00 | 0.01 | 0.01 | 71 | 1015.8 |
| 20260905223849 | 73 | 355 | 1.7 | 6.1 | 0.00 | 0.01 | 0.01 | 69 | 1015.6 |
| 20260905222851 | 74 | 343 | 1.7 | 4.3 | 0.00 | 0.01 | 0.01 | 68 | 1015.5 |
| 20260905221853 | 74 | 40 | 1.7 | 6.1 | 0.00 | 0.01 | 0.01 | 66 | 1015.4 |
| 20260905220849 | 74 | 355 | 1.7 | 4.3 | 0.00 | 0.01 | 0.01 | 65 | 1015.4 |
| 20260905215851 | 74 | 5 | 1.7 | 4.3 | 0.00 | 0.01 | 0.01 | 64 | 1015.4 |
| 20260905214853 | 74 | 40 | 1.7 | 4.3 | 0.00 | 0.01 | 0.01 | 63 | 1015.2 |
| 20260905213853 | 74 | 53 | 3.5 | 7.8 | 0.00 | 0.01 | 0.01 | 64 | 1015.2 |
| 20260905212854 | 75 | 351 | 3.5 | 6.1 | 0.00 | 0.01 | 0.01 | 64 | 1015.4 |
| 20260905211850 | 75 | 0 | 3.5 | 6.1 | 0.00 | 0.01 | 0.01 | 64 | 1015.4 |
| 20260905210854 | 75 | 42 | 3.5 | 6.1 | 0.00 | 0.01 | 0.01 | 64 | 1015.2 |
| 20260905205853 | 75 | 342 | 1.7 | 6.1 | 0.00 | 0.01 | 0.01 | 65 | 1015.1 |
| 20260905204845 | 75 | 355 | 1.7 | 6.1 | 0.00 | 0.01 | 0.01 | 63 | 1015.1 |
| 20260905203845 | 76 | 53 | 1.7 | 6.1 | 0.00 | 0.01 | 0.01 | 61 | 1015.1 |
| 20260905202844 | 76 | 64 | 1.7 | 6.1 | 0.00 | 0.01 | 0.01 | 61 | 1015.2 |
| 20260905201845 | 76 | 5 | 0.0 | 4.3 | 0.00 | 0.01 | 0.01 | 63 | 1015.4 |
| 20260905200846 | 76 | 0 | 1.7 | 4.3 | 0.00 | 0.01 | 0.01 | 61 | 1015.4 |
| 20260905195843 | 76 | 40 | 1.7 | 4.3 | 0.00 | 0.01 | 0.01 | 60 | 1015.5 |
| 20260905194846 | 76 | 57 | 3.5 | 4.3 | 0.00 | 0.01 | 0.01 | 60 | 1015.6 |
| 20260905193845 | 76 | 49 | 1.7 | 6.1 | 0.00 | 0.01 | 0.01 | 62 | 1015.4 |
| 20260905192853 | 76 | 46 | 3.5 | 6.1 | 0.00 | 0.01 | 0.01 | 60 | 1015.5 |
| 20260905191844 | 76 | 46 | 1.7 | 6.1 | 0.00 | 0.01 | 0.01 | 62 | 1015.7 |
| 20260905190839 | 76 | 45 | 1.7 | 4.3 | 0.00 | 0.01 | 0.01 | 62 | 1015.7 |
| 20260905185838 | 76 | 42 | 3.5 | 6.1 | 0.00 | 0.01 | 0.01 | 63 | 1015.7 |
| 20260905184836 | 76 | 13 | 1.7 | 4.3 | 0.00 | 0.01 | 0.01 | 65 | 1015.7 |
| 20260905183836 | 76 | 28 | 3.5 | 6.1 | 0.00 | 0.01 | 0.01 | 64 | 1015.7 |
| 20260905182836 | 76 | 11 | 1.7 | 7.8 | 0.00 | 0.01 | 0.01 | 66 | 1015.7 |
| 20260905181838 | 75 | 5 | 1.7 | 6.1 | 0.00 | 0.01 | 0.01 | 68 | 1015.7 |
| 20260905180837 | 75 | 59 | 1.7 | 4.3 | 0.01 | 0.01 | 0.01 | 68 | 1015.8 |
| 20260905175840 | 75 | 19 | 1.7 | 4.3 | 0.01 | 0.01 | 0.01 | 68 | 1015.6 |
| 20260905174832 | 75 | 55 | 1.7 | 4.3 | 0.01 | 0.01 | 0.01 | 67 | 1015.7 |
| 20260905173832 | 75 | 56 | 1.7 | 7.8 | 0.01 | 0.01 | 0.01 | 65 | 1015.7 |
| 20260905172833 | 75 | 53 | 1.7 | 4.3 | 0.01 | 0.01 | 0.01 | 69 | 1015.7 |
| 20260905171831 | 75 | 45 | 1.7 | 4.3 | 0.01 | 0.01 | 0.01 | 68 | 1015.7 |
| 20260905170831 | 75 | 36 | 1.7 | 4.3 | 0.00 | 0.00 | 0.00 | 67 | 1015.8 |
| 20260905165829 | 75 | 44 | 0.0 | 4.3 | 0.00 | 0.00 | 0.00 | 68 | 1015.9 |
| 20260905164831 | 74 | 51 | 1.7 | 6.1 | 0.00 | 0.00 | 0.00 | 70 | 1015.9 |
| 20260905163831 | 74 | 0 | 1.7 | 4.3 | 0.00 | 0.00 | 0.00 | 70 | 1015.8 |
| 20260905162833 | 74 | 74 | 1.7 | 4.3 | 0.00 | 0.00 | 0.00 | 70 | 1015.8 |
| 20260905161832 | 74 | 42 | 1.7 | 4.3 | 0.00 | 0.00 | 0.00 | 72 | 1015.9 |